This is the latest recevied weather packets stored in our database for station/object TA3HRJ-12. If no packets are shown the sender has not sent any weather packets the latest 10 day(s).
| Time | Temp. | Humidity | Pressure | Rain* | Wind** | Luminosity | Snow |
|---|---|---|---|---|---|---|---|
| 1777532955 | 25° C | 18% | 1028.8 hPa | - | - | - | - |
| 1777532055 | 25° C | 18% | 1028.9 hPa | - | - | - | - |
| 1777531155 | 25.56° C | 18% | 1028.8 hPa | - | - | - | - |
| 1777530255 | 24.44° C | 19% | 1028.7 hPa | - | - | - | - |
| 1777529355 | 25° C | 17% | 1028.8 hPa | - | - | - | - |
| 1777528455 | 25° C | 18% | 1028.7 hPa | - | - | - | - |
| 1777527555 | 24.44° C | 18% | 1028.9 hPa | - | - | - | - |
| 1777526655 | 24.44° C | 17% | 1028.8 hPa | - | - | - | - |
| 1777525755 | 24.44° C | 18% | 1028.8 hPa | - | - | - | - |
| 1777524855 | 23.33° C | 19% | 1028.9 hPa | - | - | - | - |
| 1777523955 | 22.78° C | 19% | 1028.9 hPa | - | - | - | - |
| 1777523055 | 22.22° C | 19% | 1028.8 hPa | - | - | - | - |
| 1777522154 | 21.67° C | 19% | 1028.8 hPa | - | - | - | - |
| 1777521254 | 20.56° C | 20% | 1028.8 hPa | - | - | - | - |
| 1777520354 | 19.44° C | 21% | 1028.8 hPa | - | - | - | - |
| 1777519454 | 19.44° C | 21% | 1028.7 hPa | - | - | - | - |
| 1777518554 | 18.33° C | 22% | 1028.5 hPa | - | - | - | - |
| 1777517654 | 17.78° C | 23% | 1028.6 hPa | - | - | - | - |
| 1777516754 | 17.78° C | 23% | 1028.5 hPa | - | - | - | - |
| 1777515854 | 17.78° C | 23% | 1028.3 hPa | - | - | - | - |
| 1777514954 | 18.33° C | 23% | 1028 hPa | - | - | - | - |
| 1777514054 | 18.33° C | 23% | 1028.2 hPa | - | - | - | - |
| 1777513153 | 18.33° C | 23% | 1028.2 hPa | - | - | - | - |
| 1777512253 | 17.78° C | 23% | 1028.3 hPa | - | - | - | - |
| 1777511353 | 18.33° C | 22% | 1028.2 hPa | - | - | - | - |
* Rain since midnight (hover to see other rain measurements)
** Current wind speed in m/s (hover to see current wind gust speed)